Oconto, WI

11:58 AM CDT on September 15, 2019 (GMT -0500)
Oconto Municipal

Weather History for KOCQ - June, 2019

Change the Weather History Date:

Thursday, June 6, 2019

  Actual Average Record
Temperature  
Mean Temperature 62 °F -  
Max Temperature 74 °F 74 °F 79 °F (2014)
Min Temperature 52 °F 50 °F 37 °F (2015)
Degree Days  
Heating Degree Days 2    
Growing Degree Days 12 (Base 50)    
Moisture  
Dew Point 52 °F    
Average Humidity 71    
Maximum Humidity 98    
Minimum Humidity 46    
Precipitation  
Precipitation 0.00 in - - ()
Sea Level Pressure  
Sea Level Pressure 29.92 in    
Wind  
Wind Speed 3 mph (ESE)    
Max Wind Speed 9 mph    
Max Gust Speed -    
Visibility 10 miles    
Events      
Averages and records for this station are not official NWS values.
T = Trace of Precipitation, MM = Missing Value Source: NWS Daily Summary

Daily Weather History Graph

Daily Weather History Graph

Search for Another Location

Airport or City:

Astronomy

Jun. 06, 2019 Rise Set
Actual Time 5:06 AM CDT 8:34 PM CDT
Civil Twilight 4:29 AM CDT 9:11 PM CDT
Nautical Twilight 3:41 AM CDT 9:59 PM CDT
Astronomical Twilight 2:40 AM CDT 11:01 PM CDT
Moon 8:15 AM CDT (6/6) 11:49 PM CDT (6/6)
Length of Visible Light 16h 41m
Length of Day
15h 27m
Waxing Crescent, 14% of the Moon is Illuminated
Jun 6
Waxing Crescent
Jun 10
First Quarter
Jun 17
Full
Jun 25
Last Quarter
Jul 2
New

Hourly Weather History & Observations

Time (CDT) Temp. Dew Point Humidity Pressure Visibility Wind Dir Wind Speed Gust Speed Precip Events Conditions
12:15 AM 52.2 °F 51.3 °F 97% 29.89 in 10.0 mi Calm Calm - N/A   Clear
12:35 AM 52.2 °F 51.3 °F 97% 29.89 in 10.0 mi Calm Calm - N/A   Mostly Cloudy
12:55 AM 53.6 °F 52.7 °F 97% 29.89 in 10.0 mi Calm Calm - N/A   Overcast
1:15 AM 53.8 °F 52.9 °F 97% 29.89 in 10.0 mi Calm Calm - N/A   Overcast
1:35 AM 54.3 °F 53.2 °F 96% 29.89 in 10.0 mi Calm Calm - N/A   Overcast
1:55 AM 54.0 °F 53.1 °F 97% 29.89 in 10.0 mi Calm Calm - N/A   Overcast
2:15 AM 52.7 °F 52.0 °F 97% 29.89 in 10.0 mi Calm Calm - N/A   Mostly Cloudy
2:35 AM 53.4 °F 52.9 °F 98% 29.89 in 10.0 mi Calm Calm - N/A   Overcast
2:55 AM 54.3 °F 53.6 °F 97% 29.88 in 10.0 mi North 3.5 mph - N/A   Overcast
3:15 AM 54.5 °F 53.1 °F 95% 29.88 in 10.0 mi Calm Calm - N/A   Overcast
3:35 AM 53.6 °F 52.7 °F 97% 29.88 in 10.0 mi NNE 3.5 mph - N/A   Overcast
3:55 AM 52.9 °F 52.2 °F 97% 29.89 in 10.0 mi Calm Calm - N/A   Overcast
4:15 AM 53.2 °F 52.3 °F 97% 29.88 in 10.0 mi NNE 4.6 mph - N/A   Mostly Cloudy
4:35 AM 53.4 °F 52.0 °F 95% 29.89 in 10.0 mi NNE 4.6 mph - N/A   Mostly Cloudy
4:55 AM 52.7 °F 51.8 °F 97% 29.90 in 10.0 mi North 3.5 mph - N/A   Mostly Cloudy
5:15 AM 52.9 °F 51.8 °F 96% 29.90 in 10.0 mi North 4.6 mph - N/A   Mostly Cloudy
5:35 AM 53.6 °F 51.4 °F 92% 29.90 in 10.0 mi NNE 4.6 mph - N/A   Overcast
5:55 AM 53.6 °F 50.9 °F 91% 29.90 in 10.0 mi North 3.5 mph - N/A   Overcast
6:15 AM 53.6 °F 51.1 °F 91% 29.91 in 10.0 mi NE 4.6 mph - N/A   Overcast
6:35 AM 54.5 °F 50.5 °F 86% 29.93 in 10.0 mi NNE 3.5 mph - N/A   Mostly Cloudy
6:55 AM 55.8 °F 50.5 °F 83% 29.93 in 10.0 mi NNE 4.6 mph - N/A   Mostly Cloudy
7:15 AM 57.2 °F 49.8 °F 76% 29.94 in 10.0 mi Calm Calm - N/A   Scattered Clouds
7:35 AM 58.8 °F 49.3 °F 71% 29.94 in 10.0 mi ENE 3.5 mph - N/A   Mostly Cloudy
7:55 AM 59.0 °F 49.1 °F 70% 29.94 in 10.0 mi East 3.5 mph - N/A   Overcast
8:15 AM 60.4 °F 47.8 °F 63% 29.94 in 10.0 mi East 4.6 mph - N/A   Scattered Clouds
8:35 AM 60.8 °F 48.7 °F 64% 29.94 in 10.0 mi East 3.5 mph - N/A   Clear
8:55 AM 62.1 °F 48.6 °F 61% 29.94 in 10.0 mi East 5.8 mph - N/A   Scattered Clouds
9:15 AM 61.7 °F 48.0 °F 61% 29.94 in 10.0 mi ENE 4.6 mph - N/A   Scattered Clouds
9:35 AM 62.2 °F 47.7 °F 59% 29.95 in 10.0 mi ENE 4.6 mph - N/A   Clear
9:55 AM 62.6 °F 48.7 °F 60% 29.95 in 10.0 mi ENE 5.8 mph - N/A   Clear
10:15 AM 63.5 °F 50.2 °F 62% 29.94 in 10.0 mi SE 5.8 mph - N/A   Clear
10:35 AM 64.6 °F 50.5 °F 60% 29.94 in 10.0 mi East 4.6 mph - N/A   Clear
10:55 AM 65.7 °F 49.5 °F 56% 29.94 in 10.0 mi East 4.6 mph - N/A   Clear
11:15 AM 66.2 °F 50.0 °F 56% 29.94 in 10.0 mi South 3.5 mph - N/A   Clear
11:35 AM 67.6 °F 49.6 °F 52% 29.94 in 10.0 mi ESE 3.5 mph - N/A   Clear
12:35 PM 69.3 °F 48.4 °F 47% 29.94 in 10.0 mi SE 3.5 mph - N/A   Clear
12:55 PM 69.8 °F 50.0 °F 49% 29.93 in 10.0 mi South 5.8 mph - N/A   Clear
1:15 PM 70.0 °F 50.0 °F 49% 29.93 in 10.0 mi SSE 5.8 mph - N/A   Clear
1:35 PM 71.2 °F 50.7 °F 48% 29.93 in 10.0 mi ESE 6.9 mph - N/A   Clear
1:55 PM 71.6 °F 49.6 °F 46% 29.93 in 10.0 mi East 3.5 mph - N/A   Clear
2:15 PM 72.0 °F 50.7 °F 47% 29.93 in 10.0 mi SSE 4.6 mph - N/A   Clear
3:15 PM 72.9 °F 54.1 °F 52% 29.93 in 10.0 mi SE 8.1 mph - N/A   Clear
3:35 PM 73.2 °F 54.5 °F 52% 29.93 in 10.0 mi ESE 9.2 mph - N/A   Clear
3:55 PM 73.2 °F 53.4 °F 50% 29.93 in 10.0 mi South 8.1 mph - N/A   Clear
4:15 PM 73.4 °F 54.0 °F 50% 29.93 in 10.0 mi SE 6.9 mph - N/A   Clear
4:35 PM 73.4 °F 54.1 °F 51% 29.92 in 10.0 mi SSE 6.9 mph - N/A   Clear
4:55 PM 73.9 °F 56.3 °F 54% 29.92 in 10.0 mi SE 6.9 mph - N/A   Clear
5:15 PM 72.9 °F 55.4 °F 54% 29.92 in 10.0 mi SSE 6.9 mph - N/A   Clear
5:35 PM 72.9 °F 55.6 °F 55% 29.92 in 10.0 mi SE 6.9 mph - N/A   Clear
5:55 PM 73.0 °F 55.6 °F 54% 29.92 in 10.0 mi South 6.9 mph - N/A   Clear
6:15 PM 72.5 °F 55.2 °F 54% 29.92 in 10.0 mi SSE 8.1 mph - N/A   Clear
6:35 PM 72.0 °F 55.0 °F 55% 29.91 in 10.0 mi SSE 8.1 mph - N/A   Clear
6:55 PM 71.6 °F 54.9 °F 55% 29.92 in 10.0 mi SSE 8.1 mph - N/A   Clear
7:15 PM 70.7 °F 55.2 °F 58% 29.92 in 10.0 mi SSE 4.6 mph - N/A   Clear
7:35 PM 69.8 °F 54.7 °F 59% 29.92 in 10.0 mi SSE 4.6 mph - N/A   Clear
7:55 PM 68.7 °F 54.5 °F 60% 29.92 in 10.0 mi South 4.6 mph - N/A   Clear
8:15 PM 67.1 °F 55.6 °F 66% 29.92 in 10.0 mi SSE 4.6 mph - N/A   Clear
8:35 PM 66.2 °F 54.5 °F 66% 29.91 in 10.0 mi SSE 4.6 mph - N/A   Clear
8:55 PM 64.9 °F 54.5 °F 69% 29.92 in 10.0 mi SSE 4.6 mph - N/A   Clear
9:15 PM 64.2 °F 54.5 °F 71% 29.92 in 10.0 mi SSE 4.6 mph - N/A   Clear
9:35 PM 63.9 °F 53.8 °F 70% 29.93 in 10.0 mi Calm Calm - N/A   Clear
9:55 PM 63.3 °F 53.8 °F 71% 29.93 in 10.0 mi Calm Calm - N/A   Clear
10:15 PM 62.8 °F 53.1 °F 71% 29.94 in 10.0 mi Calm Calm - N/A   Clear
10:35 PM 62.1 °F 52.9 °F 72% 29.94 in 10.0 mi Calm Calm - N/A   Clear
10:55 PM 62.1 °F 52.2 °F 70% 29.94 in 10.0 mi Calm Calm - N/A   Clear
11:15 PM 57.9 °F 52.5 °F 82% 29.94 in 10.0 mi Calm Calm - N/A   Clear
11:35 PM 58.1 °F 52.9 °F 83% 29.94 in 10.0 mi Calm Calm - N/A   Clear
11:55 PM 56.7 °F 52.7 °F 87% 29.94 in 10.0 mi Calm Calm - N/A   Clear